Other Public Products
Issued by NWS Grand Forks, ND

Home | Current Version | Previous Version | Graphics & Text | Print | Product List | Glossary On
Versions: 1 2 3 4 5 6 7 8 9 10 11 12 13 14 15 16 17 18 19 20 21 22 23 24 25 26 27 28 29 30 31 32 33 34 35 36 37 38 39 40 41 42 43 44 45 46 47 48 49 50
000
FPUS83 KFGF 220510
OPUFGF
PRAIRIE TO PINES WEATHER ROUNDUP
NATIONAL WEATHER SERVICE EASTERN NORTH DAKOTA/GRAND FORKS ND
1100 PM CST SUN DEC 21 2014

 **SATELLITE DATA USED TO AUGMENT SKY COVER AT AUTOMATED STATIONS**
 *****  WEATHER ACROSS EASTERN NORTH DAKOTA  *****

CITY           SKY/WX    TMP DP  RH WIND       PRES   REMARKS
GRAND FORKS    CLOUDY    33  32  96 S12       29.56F WCI  24
GRAND FORKS AF CLOUDY    32  32 100 S14       29.56S WCI  22
GRAND CITY NWS   N/A     32 N/A N/A SE6         N/A
BUXTON         NOT AVBL
DEVILS LAKE    CLOUDY    28  25  86 S12       29.49S WCI  18
FARGO          CLOUDY    36  34  92 SE10      29.55F FOG
WAHPETON ARPT  CLOUDY    34  32  93 SE10      29.55S
$$

 *****  WEATHER ACROSS CENTRAL AND WESTERN NORTH DAKOTA  *****

CITY           SKY/WX    TMP DP  RH WIND       PRES   REMARKS
JAMESTOWN      CLOUDY    32  30  92 SE6       29.47F FOG
BISMARCK       CLOUDY    29  28  96 SE8       29.45S FOG     WCI  21
MINOT          CLOUDY    30  28  92 SE10      29.42S FOG     WCI  21
MINOT AFB      CLOUDY    30  30 100 SE13      29.43R FOG     WCI  20
GARRISON         N/A     28  27  96 SE10      29.41S WCI  19
WILLISTON      CLOUDY    30  27  88 SE3       29.39R
DICKINSON      CLOUDY    37  34  89 W9        29.37R FOG
HETTINGER      CLOUDY    36  33  89 W14       29.41S
$$

 *****  OTHER OBSERVATIONS NORTHEAST NORTH DAKOTA  *****

CITY           SKY/WX    TMP DP  RH WIND       PRES   REMARKS
WALHALLA         N/A     32  32 100 SE10      29.56S FOG     WCI  24
LANGDON        FOG       30  28  93 MISG      29.51S VSB 1/2
CAVALIER       CLOUDY    32  32 100 SE7       29.57S FOG
GRAFTON        NOT AVBL
CANDO          CLOUDY    28  28 100 SE14      29.51S FOG     WCI  17
FORT TOTTEN      N/A     29  29 100 S3        29.95S
ROLLA          FOG       27  27 100 S10G18    29.49S VSB 1/2 WCI  17
RUGBY          CLOUDY    28  28 100 SE9       29.48S FOG     WCI  20
 ***** THE ABOVE OBSERVATIONS ARE NON NWS ARE NOT QUALITY
        CONTROLLED AND MAY MIS-REPORT RAIN FOR SNOW...
$$

 *****  OTHER OBSERVATIONS SOUTHEAST NORTH DAKOTA *****

CITY           SKY/WX    TMP DP  RH WIND       PRES   REMARKS
COOPERSTOWN    NOT AVBL
VALLEY CITY    CLOUDY    32  32 100 SE7       29.50S FOG
OAKES            N/A     34  34 100 SE9       29.49S
GWINNER        CLOUDY    34  34 100 SE9       29.51S
SHEYENNE NWR     N/A     34  33  98 SE8       29.95S
BUFFALO        NOT AVBL
WYNDMERE         N/A     34  36 100 SE7         N/A
 ***** THE ABOVE OBSERVATIONS ARE NON NWS ARE NOT QUALITY
       CONTROLLED AND MAY MIS-REPORT RAIN FOR SNOW...
$$

  *****  WEATHER ACROSS NORTHERN MINNESOTA  *****

CITY           SKY/WX    TMP DP  RH WIND       PRES   REMARKS
FLAG ISLAND    CLOUDY    32  30  93 SE13      29.63S WCI  22
WARROAD        CLOUDY    34  28  80 SE8       29.62S
ROSEAU         CLOUDY    34  28  80 SE7       29.61S
HALLOCK        CLOUDY    34  30  86 CALM      29.58F
THF RVR FALLS  CLOUDY    34  30  86 SE8       29.59S
HALSTAD          N/A     34  34  98 SE7         N/A
FOSSTON        CLOUDY    32  30  93 S8        29.59S WCI  25
BAUDETTE       CLOUDY    33  30  88 SE7       29.63S
WASKISH        CLOUDY    34  32  93 CALM      29.63S
CROOKSTON      CLOUDY    34  32  93 S10       29.59S
$$
  *****  WEATHER ACROSS CENTRAL AND WEST MINNESOTA  *****

CITY           SKY/WX    TMP DP  RH WIND       PRES   REMARKS
BEMIDJI        CLOUDY    32  32  99 SE10      29.61S FOG     WCI  24
PARK RAPIDS    CLOUDY    34  33  96 SE12      29.60S FOG
WADENA         CLOUDY    34  34 100 SE8       29.60S FOG
DETROIT LAKES  CLOUDY    34  34 100 SE9       29.58S FOG
MOORHEAD       CLOUDY    36  36 100 SE8       29.56F FOG
FERGUS FALLS   CLOUDY    36  36 100 SE13      29.59S FOG
ELBOW LAKE     CLOUDY    34  34 100 SE13      29.56S FOG     WCI  25
MORRIS MN      CLOUDY    36  36 100 SE16      29.56S FOG
STAPLES        CLOUDY    34  34 100 SE6       29.62S FOG
WHEATON        CLOUDY    32  32 100 SE10      29.56S FOG     WCI  24
$$
  *****  WEATHER ELSEWHERE ACROSS MINNESOTA  *****

CITY           SKY/WX    TMP DP  RH WIND       PRES   REMARKS
DULUTH         FOG       34  32  92 SE8       29.70F VSB 1
INTRNTL FALLS  CLOUDY    32  31  96 SE6       29.67R
ELY            CLOUDY    32  30  93 S7        29.71S FOG
CLOQUET        CLOUDY    34  34 100 SE6       29.71R FOG
BRAINERD       CLOUDY    34  34 100 SE10      29.66S FOG
HIBBING        CLOUDY    33  31  92 S8        29.68S FOG
ALEXANDRIA     CLOUDY    35  34  96 SE17      29.59F FOG     WCI  25
SAINT CLOUD    CLOUDY    38  35  89 S10       29.67S FOG
MINNEAPOLIS    CLOUDY    38  35  89 SE9       29.72F
$$

  *****  WEATHER ACROSS SOUTH DAKOTA  *****

CITY           SKY/WX    TMP DP  RH WIND       PRES   REMARKS
SIOUX FALLS    CLOUDY    39  37  92 S18G28    29.54S
BROOKINGS      NOT AVBL
WATERTOWN      CLOUDY    36  35  96 S15       29.48S FOG
HURON          CLOUDY    37  35  92 S13       29.45F FOG
SISSETON         N/A     35  34  96 SE10      29.51F
ABERDEEN       CLOUDY    36  33  89 S9        29.47S
MITCHELL       CLOUDY    37  35  92 S12       29.48S
PIERRE         MOCLDY    26  24  92 W3        29.42R
MOBRIDGE       FOG       29  28  96 SE3       29.41S VSB 1/2
RAPID CITY     CLOUDY    41  33  73 NW21G31   29.48R
$$

  *****  SOME WEATHER IN NEARBY STATES *****

CITY           SKY/WX    TMP DP  RH WIND       PRES   REMARKS
GLASGOW MT     LGT SNOW  34  31  88 NW20      29.46R FOG     WCI  23
GREAT FALLS MT CLEAR     34  23  64 W15       29.69R WCI  24
CHEYENNE WY    MOCLDY    33  23  66 NW16G23   29.63F WCI  23
SCOTTSBLUFF NE CLOUDY    38  31  76 W16       29.59R
OMAHA NE       DRIZZLE   43  41  93 S18       29.66F
DES MOINES IA  CLOUDY    43  39  86 S17       29.76F
DAVENPORT IA   CLOUDY    35  30  82 SE17      29.92F WCI  25
CHICAGO IL     CLOUDY    32  27  81 S10       30.03S WCI  24
EAU CLAIRE WI  CLOUDY    37  35  92 S9        29.80R
LA CROSSE WI   CLOUDY    38  34  85 S14       29.85R
$$

  *****  SOME NATIONAL WEATHER *****

CITY           SKY/WX    TMP DP  RH WIND       PRES   REMARKS
LA GUARDIA NY  CLOUDY    35  30  82 N7        30.33F
RALEIGH NC     CLOUDY    41  33  73 NE6       30.23F
ATLANTA GA     DRIZZLE   48  45  87 E14       30.07F
NEW ORLEANS LA CLOUDY    57  54  89 E5        29.96F FOG
OKLAHOMA CITY  CLOUDY    48  44  86 SE17G23   29.65F
ALBUQUERQUE NM PTCLDY    38  28  67 E7        29.93S
SALT LAKE CITY CLOUDY    44  38  79 NW7       30.02R
LOS ANGELES CA CLOUDY    58  55  90 E5        30.06R FOG
BOISE ID       LGT RAIN  41  40  96 CALM      30.11R
SEATTLE WA     CLOUDY    51  45  79 SW12      30.10R
$$

*** WEATHER ACROSS MANITOBA...SASKATCHEWAN AND ONTARIO ***
                ***ONTARIO***

CITY           SKY/WX    TMP DP  RH WIND       PRES   REMARKS
GERALDTON      FLURRIES  34  32  93 S9G17     29.84
THUNDER BAY    NOT AVBL
SIOUX LOOKOUT  FRZ DRZL  30  30 100 S6        29.70S WCI  24
TORONTO        CLOUDY    32  21  64 S7        30.27F
BIG TROUT LK   FLURRIES  28  28 100 S9        29.74F WCI  20
PICKLE LAKE    NOT AVBL
DRYDEN         CLOUDY    30  30 100 S7        29.68R WCI  23
KENORA         FRZ DRZL  30  30 100 S9        29.64S FOG     WCI  22
$$
                *** MANITOBA***

CITY           SKY/WX    TMP DP  RH WIND       PRES   REMARKS
BRANDON        FOG       25  23  93 E10       29.52R VSB 5/8 WCI  15
DAUPHIN        CLOUDY    27  27 100 SE9       29.55R FOG     WCI  17
ISLAND LAKE    CLOUDY    28  27  93 E3        29.67R
PILOT MOUND      N/A     28  28 100 CALM        N/A
THE PAS        CLOUDY    25  23  93 NE3       29.62R
THOMPSON       FRZ DRZL  21  19  93 N5        29.70R WCI  15
WINNIPEG       CLOUDY    30  30 100 S10       29.61R FOG     WCI  21
LYNN LAKE      CLOUDY    14  12  92 E3        29.70R
CHURCHILL      FLURRIES  14  12  92 SW2       29.80R
GILLAM         FRZ DRZL  21  19  93 NE6       29.74R WCI  14
$$
                ***SASKATCHEWAN***

CITY           SKY/WX    TMP DP  RH WIND       PRES   REMARKS
ESTEVAN        FOG       30  28  93 E9        29.39R VSB 1/4 WCI  22
KINDERSLEY     LGT SNOW  19  18  93 NW10      29.54R WCI   8
LLOYDMINSTER   LGT SNOW  19  18  93 W3        29.55R
PRINCE ALBERT  NOT AVBL
REGINA         CLOUDY    23  23 100 NE8       29.44R WCI  14


USA.gov is the U.S. government's official web portal to all federal, state and local government web resources and services.